GLOBALSTAR M095 (39077 NORAD) Tracking and Keplerian Element Data

This shows tracking and keplerian element data for the satellite.

Feedback or suggestion? Click here.




ElementValue
Catalog39077
NameGLOBALSTAR M095
Epoch Orbit59319
Epoch Day353.63913522
Epoch Year2025
RAAN107.7367
Inclination52.0074
Eccentricity4.95E-05
Argument of Perigee136.6402
Mean Anonmoly223.4503
Mean Motion12.62267235
Decay Rate-1.24E-06
L11 39077U 13005F 25353.63913522 -.00000124 00000+0 -11278-3 0 9994
L22 39077 52.0074 107.7367 0000495 136.6402 223.4503 12.62267235593199



Live tracking and technical data element details for GLOBALSTAR M095 (NORAD 39077). GLOBALSTAR M095 can be tracked NOW for your location showing map with azimuth and elevation plus other details from your city location.







IsCatalogInMostPopularTable: catalog: 39077, numindb: 614
Update: records affected: 1



GetName: 39077 GLOBALSTAR M095

Hit Count: updated at: Sat, 14 Mar 2026 02:08:18 GMT